SVFLIR Weather Reports


Display with metric or nautical units.
time (UTC)temp
F
wind
direction
speed
MPH
gust
MPH
rain 1hr
in
rain 24hr
in
rain mn
in
humidity
%
barometer
mb
20210623015955 91 201 14.0 22.0 0.00 0.00 0.00
20210623015454 93 206 13.0 21.0 0.00 0.00 0.00
20210623014953 93 220 12.0 22.0 0.00 0.00 0.00
20210623014452 95 240 8.0 26.0 0.00 0.00 0.00
20210623013951 95 219 14.0 22.0 0.00 0.00 0.00
20210623013450 96 206 18.0 23.0 0.00 0.00 0.00
20210623012949 96 196 15.0 26.0 0.00 0.00 0.00
20210623012448 96 201 17.0 27.0 0.00 0.00 0.00
20210623011947 96 216 18.0 23.0 0.00 0.00 0.00
20210623011446 96 230 12.0 25.0 0.00 0.00 0.00
20210623010945 96 233 12.0 26.0 0.00 0.00 0.00
20210623010444 91 236 14.0 23.0 0.00 0.00 0.00
20210623005943 93 230 16.0 26.0 0.00 0.00 0.00
20210623005442 90 213 16.0 24.0 0.00 0.00 0.00
20210623004941 93 208 17.0 25.0 0.00 0.00 0.00
20210623004440 94 192 17.0 20.0 0.00 0.00 0.00
20210623003940 94 219 10.0 22.0 0.00 0.00 0.00
20210623003438 95 202 16.0 26.0 0.00 0.00 0.00
20210623002937 93 195 21.0 25.0 0.00 0.00 0.00
20210623002436 88 210 20.0 22.0 0.00 0.00 0.00
20210623001936 90 225 14.0 21.0 0.00 0.00 0.00
20210623001435 98 220 17.0 25.0 0.00 0.00 0.00
20210623000933 99 210 17.0 22.0 0.00 0.00 0.00
20210623000432 99 217 12.0 24.0 0.00 0.00 0.00
20210622235931 99 188 16.0 23.0 0.00 0.00 0.00
20210622235431 98 217 16.0 24.0 0.00 0.00 0.00
20210622234930 93 232 17.0 20.0 0.00 0.00 0.00
20210622234428 97 232 18.0 22.0 0.00 0.00 0.00
20210622233927 97 219 16.0 22.0 0.00 0.00 0.00
20210622233427 100 227 16.0 21.0 0.00 0.00 0.00
20210622232926 100 225 16.0 23.0 0.00 0.00 0.00
20210622232425 100 215 14.0 23.0 0.00 0.00 0.00
20210622231923 100 198 16.0 23.0 0.00 0.00 0.00
20210622231423 100 234 17.0 23.0 0.00 0.00 0.00
20210622230922 100 212 19.0 21.0 0.00 0.00 0.00
20210622230421 102 212 19.0 23.0 0.00 0.00 0.00
20210622225920 102 233 18.0 23.0 0.00 0.00 0.00
20210622225418 95 223 17.0 24.0 0.00 0.00 0.00
20210622224918 100 208 12.0 27.0 0.00 0.00 0.00
20210622224417 102 213 11.0 24.0 0.00 0.00 0.00
20210622223916 102 222 12.0 18.0 0.00 0.00 0.00
20210622223415 102 246 9.0 22.0 0.00 0.00 0.00
20210622222914 99 223 14.0 21.0 0.00 0.00 0.00
20210622222412 97 188 14.0 24.0 0.00 0.00 0.00
20210622221912 101 187 14.0 23.0 0.00 0.00 0.00
20210622221411 103 167 11.0 17.0 0.00 0.00 0.00
20210622220910 103 229 14.0 21.0 0.00 0.00 0.00
20210622220409 103 240 12.0 20.0 0.00 0.00 0.00
20210622215908 104 250 11.0 21.0 0.00 0.00 0.00
20210622215407 97 229 6.0 23.0 0.00 0.00 0.00
20210622214906 98 210 17.0 20.0 0.00 0.00 0.00
20210622214405 89 227 13.0 16.0 0.00 0.00 0.00
20210622213904 96 217 8.0 22.0 0.00 0.00 0.00
20210622213403 96 215 16.0 18.0 0.00 0.00 0.00
20210622212902 104 253 10.0 21.0 0.00 0.00 0.00
20210622212401 99 201 12.0 18.0 0.00 0.00 0.00
20210622211900 97 226 11.0 20.0 0.00 0.00 0.00
20210622211359 91 244 3.0 19.0 0.00 0.00 0.00
20210622210858 97 220 12.0 20.0 0.00 0.00 0.00
20210622210357 100 220 16.0 19.0 0.00 0.00 0.00
20210622205856 97 225 13.0 16.0 0.00 0.00 0.00
20210622205355 100 222 10.0 16.0 0.00 0.00 0.00
20210622204854 97 216 12.0 19.0 0.00 0.00 0.00
20210622204353 103 232 15.0 20.0 0.00 0.00 0.00
20210622203852 100 222 13.0 20.0 0.00 0.00 0.00
20210622203351 100 222 6.0 17.0 0.00 0.00 0.00
20210622202850 102 184 8.0 17.0 0.00 0.00 0.00
20210622202349 105 246 7.0 17.0 0.00 0.00 0.00
20210622201848 105 216 12.0 20.0 0.00 0.00 0.00
20210622201347 105 279 9.0 20.0 0.00 0.00 0.00
20210622200846 105 210 9.0 17.0 0.00 0.00 0.00
20210622195844 104 248 14.0 20.0 0.00 0.00 0.00
20210622195343 104 229 11.0 16.0 0.00 0.00 0.00
20210622194842 104 212 10.0 17.0 0.00 0.00 0.00
20210622194341 102 189 16.0 14.0 0.00 0.00 0.00
20210622193840 101 216 8.0 19.0 0.00 0.00 0.00
20210622193339 105 205 10.0 16.0 0.00 0.00 0.00
20210622192838 104 255 9.0 16.0 0.00 0.00 0.00
20210622191837 104 233 13.0 18.0 0.00 0.00 0.00
20210622191336 104 225 12.0 19.0 0.00 0.00 0.00
20210622190834 103 230 18.0 17.0 0.00 0.00 0.00
20210622190333 102 219 9.0 14.0 0.00 0.00 0.00
20210622185832 102 205 9.0 16.0 0.00 0.00 0.00
20210622185332 102 219 5.0 14.0 0.00 0.00 0.00
20210622184831 104 198 7.0 13.0 0.00 0.00 0.00
20210622184329 104 225 6.0 15.0 0.00 0.00 0.00
20210622183828 104 244 12.0 15.0 0.00 0.00 0.00
20210622183328 103 210 10.0 16.0 0.00 0.00 0.00
20210622182827 98 198 12.0 14.0 0.00 0.00 0.00
20210622182326 101 182 6.0 18.0 0.00 0.00 0.00
20210622181824 102 246 9.0 15.0 0.00 0.00 0.00
20210622181323 102 222 5.0 13.0 0.00 0.00 0.00
20210622180822 100 216 10.0 16.0 0.00 0.00 0.00
20210622180322 102 208 10.0 13.0 0.00 0.00 0.00
20210622175821 100 198 9.0 14.0 0.00 0.00 0.00
20210622175319 98 226 8.0 12.0 0.00 0.00 0.00
20210622174819 99 198 8.0 13.0 0.00 0.00 0.00
20210622174318 99 212 11.0 12.0 0.00 0.00 0.00
20210622173817 98 212 9.0 14.0 0.00 0.00 0.00
20210622173316 93 209 7.0 12.0 0.00 0.00 0.00
20210622172814 96 215 7.0 13.0 0.00 0.00 0.00
20210622172314 96 178 10.0 13.0 0.00 0.00 0.00
20210622171813 95 212 4.0 14.0 0.00 0.00 0.00
20210622171312 96 227 6.0 13.0 0.00 0.00 0.00
20210622170811 91 191 6.0 11.0 0.00 0.00 0.00
20210622170310 95 229 4.0 12.0 0.00 0.00 0.00
20210622165809 94 195 10.0 11.0 0.00 0.00 0.00
20210622165308 98 212 9.0 11.0 0.00 0.00 0.00
20210622164807 92 216 8.0 10.0 0.00 0.00 0.00
20210622164306 96 201 6.0 8.0 0.00 0.00 0.00
20210622163805 90 185 6.0 10.0 0.00 0.00 0.00
20210622163304 92 206 9.0 13.0 0.00 0.00 0.00
20210622162305 93 194 6.0 13.0 0.00 0.00 0.00
20210622161801 94 219 8.0 10.0 0.00 0.00 0.00
20210622161300 89 172 7.0 12.0 0.00 0.00 0.00
20210622160759 93 180 4.0 9.0 0.00 0.00 0.00
20210622160258 82 192 6.0 10.0 0.00 0.00 0.00
20210622155757 87 205 8.0 11.0 0.00 0.00 0.00
20210622155256 87 209 5.0 10.0 0.00 0.00 0.00
20210622154755 90 198 6.0 10.0 0.00 0.00 0.00
20210622154254 87 191 8.0 11.0 0.00 0.00 0.00
20210622153753 86 161 4.0 10.0 0.00 0.00 0.00
20210622153252 96 158 7.0 8.0 0.00 0.00 0.00
20210622152751 88 189 1.0 8.0 0.00 0.00 0.00
20210622152250 86 198 7.0 7.0 0.00 0.00 0.00
20210622151749 84 202 6.0 8.0 0.00 0.00 0.00
20210622151248 85 201 4.0 10.0 0.00 0.00 0.00
20210622150747 84 196 4.0 9.0 0.00 0.00 0.00
20210622150246 86 195 5.0 8.0 0.00 0.00 0.00
20210622145745 89 217 2.0 8.0 0.00 0.00 0.00
20210622145244 90 212 5.0 7.0 0.00 0.00 0.00
20210622144743 88 185 5.0 7.0 0.00 0.00 0.00
20210622144242 86 187 3.0 8.0 0.00 0.00 0.00
20210622143741 79 191 6.0 7.0 0.00 0.00 0.00
20210622143240 82 194 5.0 7.0 0.00 0.00 0.00
20210622142739 85 184 6.0 6.0 0.00 0.00 0.00
20210622142238 83 184 5.0 5.0 0.00 0.00 0.00
20210622141737 84 191 5.0 5.0 0.00 0.00 0.00
20210622141237 84 182 0.0 5.0 0.00 0.00 0.00
20210622140735 84 206 4.0 3.0 0.00 0.00 0.00
20210622140234 85 182 2.0 3.0 0.00 0.00 0.00
20210622135733 82 143 0.0 3.0 0.00 0.00 0.00
20210622135232 81 123 2.0 0.0 0.00 0.00 0.00
20210622134731 76 336 0.0 0.0 0.00 0.00 0.00
20210622134230 76 336 0.0 0.0 0.00 0.00 0.00
20210622133729 79 336 0.0 0.0 0.00 0.00 0.00
20210622133229 77 336 0.0 0.0 0.00 0.00 0.00
20210622132727 77 336 0.0 0.0 0.00 0.00 0.00
20210622132227 75 336 0.0 0.0 0.00 0.00 0.00
20210622131725 75 336 0.0 0.0 0.00 0.00 0.00
20210622131224 77 336 0.0 4.0 0.00 0.00 0.00
20210622130723 77 337 1.0 0.0 0.00 0.00 0.00
20210622130222 74 106 0.0 0.0 0.00 0.00 0.00
20210622125722 74 106 0.0 1.0 0.00 0.00 0.00
20210622125220 72 106 0.0 0.0 0.00 0.00 0.00
20210622124719 74 284 0.0 0.0 0.00 0.00 0.00
20210622124218 73 284 0.0 0.0 0.00 0.00 0.00
20210622123718 73 284 0.0 0.0 0.00 0.00 0.00
20210622123217 72 284 0.0 0.0 0.00 0.00 0.00
20210622122715 70 284 0.0 0.0 0.00 0.00 0.00
20210622122214 72 284 0.0 0.0 0.00 0.00 0.00
20210622121714 73 284 0.0 0.0 0.00 0.00 0.00
20210622121213 68 284 0.0 0.0 0.00 0.00 0.00
20210622120712 70 284 0.0 0.0 0.00 0.00 0.00
20210622120210 71 284 0.0 0.0 0.00 0.00 0.00
20210622115710 71 284 0.0 2.0 0.00 0.00 0.00
20210622115209 66 271 1.0 3.0 0.00 0.00 0.00
20210622114708 75 77 0.0 3.0 0.00 0.00 0.00
20210622114207 76 98 2.0 4.0 0.00 0.00 0.00
20210622113705 74 108 0.0 4.0 0.00 0.00 0.00
20210622113205 74 105 4.0 5.0 0.00 0.00 0.00
20210622112704 75 106 4.0 5.0 0.00 0.00 0.00
20210622112203 77 112 4.0 5.0 0.00 0.00 0.00
20210622111702 76 106 5.0 6.0 0.00 0.00 0.00
20210622111201 76 116 4.0 5.0 0.00 0.00 0.00
20210622110700 75 125 4.0 5.0 0.00 0.00 0.00
20210622110159 76 115 4.0 5.0 0.00 0.00 0.00
20210622105658 77 102 4.0 5.0 0.00 0.00 0.00
20210622105157 72 122 5.0 5.0 0.00 0.00 0.00
20210622104656 75 120 4.0 5.0 0.00 0.00 0.00
20210622104155 74 105 4.0 4.0 0.00 0.00 0.00
20210622103654 76 108 4.0 4.0 0.00 0.00 0.00
20210622103153 76 112 3.0 4.0 0.00 0.00 0.00
20210622102652 77 120 4.0 3.0 0.00 0.00 0.00
20210622102151 78 122 3.0 3.0 0.00 0.00 0.00
20210622101650 79 135 3.0 3.0 0.00 0.00 0.00
20210622101149 80 143 2.0 3.0 0.00 0.00 0.00
20210622100648 80 133 3.0 4.0 0.00 0.00 0.00
20210622100147 81 98 2.0 4.0 0.00 0.00 0.00
20210622095646 82 105 2.0 3.0 0.00 0.00 0.00
20210622095145 83 185 1.0 3.0 0.00 0.00 0.00
20210622094644 82 203 3.0 3.0 0.00 0.00 0.00
20210622094143 82 215 2.0 4.0 0.00 0.00 0.00
20210622093642 82 217 3.0 6.0 0.00 0.00 0.00
20210622093141 82 187 3.0 7.0 0.00 0.00 0.00
20210622092640 82 182 6.0 6.0 0.00 0.00 0.00
20210622092139 82 182 4.0 6.0 0.00 0.00 0.00
20210622091638 83 178 4.0 5.0 0.00 0.00 0.00
20210622091137 83 170 4.0 5.0 0.00 0.00 0.00
20210622090636 84 181 3.0 5.0 0.00 0.00 0.00
20210622090135 83 175 5.0 6.0 0.00 0.00 0.00
20210622085634 79 168 5.0 0.0 0.00 0.00 0.00
20210622085133 73 126 0.0 0.0 0.00 0.00 0.00
20210622084633 75 126 0.0 0.0 0.00 0.00 0.00
20210622084131 76 126 0.0 0.0 0.00 0.00 0.00
20210622083630 77 126 0.0 2.0 0.00 0.00 0.00
20210622083129 78 150 1.0 0.0 0.00 0.00 0.00
20210622082629 80 205 0.0 3.0 0.00 0.00 0.00
20210622082128 81 205 0.0 6.0 0.00 0.00 0.00
20210622081626 82 153 4.0 7.0 0.00 0.00 0.00
20210622081125 82 133 5.0 8.0 0.00 0.00 0.00
20210622080625 81 157 7.0 8.0 0.00 0.00 0.00
20210622080124 80 139 7.0 8.0 0.00 0.00 0.00
20210622075623 81 132 7.0 8.0 0.00 0.00 0.00
20210622075121 82 154 5.0 7.0 0.00 0.00 0.00
20210622074620 81 182 5.0 7.0 0.00 0.00 0.00
20210622074120 82 178 4.0 9.0 0.00 0.00 0.00
20210622073619 81 182 6.0 8.0 0.00 0.00 0.00
20210622073118 82 127 2.0 5.0 0.00 0.00 0.00
20210622072616 79 99 5.0 5.0 0.00 0.00 0.00
20210622072116 78 94 5.0 4.0 0.00 0.00 0.00
20210622071615 78 75 3.0 7.0 0.00 0.00 0.00
20210622071114 77 61 5.0 0.0 0.00 0.00 0.00
20210622070613 77 312 0.0 0.0 0.00 0.00 0.00
20210622070112 83 312 0.0 0.0 0.00 0.00 0.00
20210622065611 83 312 0.0 0.0 0.00 0.00 0.00
20210622065110 80 312 0.0 4.0 0.00 0.00 0.00
20210622064609 82 322 1.0 5.0 0.00 0.00 0.00
20210622064108 82 352 3.0 4.0 0.00 0.00 0.00
20210622063607 83 14 3.0 4.0 0.00 0.00 0.00
20210622063106 84 2 3.0 5.0 0.00 0.00 0.00
20210622062605 83 324 4.0 6.0 0.00 0.00 0.00
20210622062104 88 313 5.0 6.0 0.00 0.00 0.00
20210622061603 89 322 4.0 7.0 0.00 0.00 0.00
20210622061102 89 316 6.0 6.0 0.00 0.00 0.00
20210622060601 88 330 4.0 6.0 0.00 0.00 0.00
20210622060100 88 319 5.0 6.0 0.00 0.00 0.00
20210622055559 88 324 4.0 4.0 0.00 0.00 0.00
20210622055058 85 334 2.0 4.0 0.00 0.00 0.00
20210622054557 86 322 2.0 4.0 0.00 0.00 0.00
20210622053555 81 260 1.0 5.0 0.00 0.00 0.00
20210622053054 76 326 3.0 5.0 0.00 0.00 0.00
20210622052553 85 312 3.0 4.0 0.00 0.00 0.00
20210622052052 89 307 4.0 6.0 0.00 0.00 0.00
20210622051551 82 291 5.0 6.0 0.00 0.00 0.00
20210622051050 89 296 4.0 7.0 0.00 0.00 0.00
20210622050549 91 291 4.0 5.0 0.00 0.00 0.00
20210622050048 93 277 3.0 2.0 0.00 0.00 0.00
20210622045547 93 277 0.0 2.0 0.00 0.00 0.00
20210622045046 96 274 1.0 3.0 0.00 0.00 0.00
20210622044545 97 274 2.0 4.0 0.00 0.00 0.00
20210622044044 97 279 2.0 6.0 0.00 0.00 0.00
20210622043543 98 267 4.0 8.0 0.00 0.00 0.00
20210622043042 100 264 5.0 10.0 0.00 0.00 0.00
20210622042541 100 237 8.0 10.0 0.00 0.00 0.00
20210622042040 100 248 6.0 12.0 0.00 0.00 0.00
20210622041539 101 250 8.0 12.0 0.00 0.00 0.00
20210622040537 101 250 9.0 18.0 0.00 0.00 0.00
20210622035535 102 243 9.0 20.0 0.00 0.00 0.00
20210622035034 102 234 16.0 19.0 0.00 0.00 0.00
20210622034032 102 239 9.0 17.0 0.00 0.00 0.00
20210622033531 103 234 14.0 15.0 0.00 0.00 0.00
20210622033030 103 234 8.0 17.0 0.00 0.00 0.00
20210622032530 103 250 13.0 12.0 0.00 0.00 0.00
20210622032029 103 225 10.0 15.0 0.00 0.00 0.00
20210622031527 103 232 8.0 15.0 0.00 0.00 0.00
20210622031026 103 222 6.0 12.0 0.00 0.00 0.00
20210622030525 103 253 8.0 15.0 0.00 0.00 0.00
20210622030025 103 265 10.0 14.0 0.00 0.00 0.00
20210622025524 103 215 9.0 15.0 0.00 0.00 0.00
20210622025022 104 229 9.0 15.0 0.00 0.00 0.00
20210622024021 104 240 14.0 11.0 0.00 0.00 0.00
20210622023520 103 243 5.0 8.0 0.00 0.00 0.00
20210622023020 104 195 6.0 10.0 0.00 0.00 0.00
20210622022517 105 234 7.0 10.0 0.00 0.00 0.00
20210622022017 105 222 6.0 14.0 0.00 0.00 0.00
20210622021015 105 208 11.0 13.0 0.00 0.00 0.00